Weather History for Holland, MI

Change the Weather History Date:

Friday, January 11, 2013

  Actual Average Record
Temperature  
Mean Temperature 47 °F 26 °F  
Max Temperature 54 °F 32 °F 58 °F (1975)
Min Temperature 39 °F 20 °F -18 °F (1979)
Degree Days  
Heating Degree Days 18 39  
Month to date heating degree days 347 420  
Since 1 July heating degree days 2451 2688  
Cooling Degree Days 0 0  
Month to date cooling degree days 0 0  
Year to date cooling degree days 0 0  
Moisture  
Dew Point 44 °F    
Average Humidity 87    
Maximum Humidity 93    
Minimum Humidity 80    
Precipitation  
Precipitation 0.55 in 0.06 in 0.68 in (2008)
Month to date precipitation 1.03 0.76  
Year to date precipitation 1.03 0.76  
Sea Level Pressure  
Sea Level Pressure 29.80 in    
Wind  
Wind Speed 14 mph (South)    
Max Wind Speed 25 mph    
Max Gust Speed 33 mph    
Visibility 6 miles    
Events Rain    
T = Trace of Precipitation, MM = Missing Value Source: NWS Daily Summary

Daily Weather History Graph

Daily Weather History Graph

Search for Another Location

Airport:

Trip Planner

Search our weather history database for the weather conditions in past years. The results will help you decide how hot, cold, wet, or windy it might be!

Date:

Astronomy

Jan. 11, 2013 Rise Set
Actual Time 8:13 AM EST 5:31 PM EST
Civil Twilight 7:42 AM EST 6:03 PM EST
Nautical Twilight 7:06 AM EST 6:38 PM EST
Astronomical Twilight 6:32 AM EST 7:12 PM EST
Moon 7:45 AM EST (1/11) 5:50 PM EST (1/11)
Length of Visible Light 10h 21m
Length of Day
9h 18m
Waning Crescent, 0% of the Moon is Illuminated
Jan 11
Waning Crescent
Jan 11
New
Jan 18
First Quarter
Jan 26
Full
Feb 3
Last Quarter

Hourly Weather History & Observations

Time (EST) Temp. Windchill Dew Point Humidity Pressure Visibility Wind Dir Wind Speed Gust Speed Precip Events Conditions
12:09 AM 39.2 °F 30.8 °F 35.6 °F 87% 30.01 in 7.0 mi ESE 15.0 mph - 0.01 in Rain Rain
12:35 AM 39.2 °F 31.2 °F 37.4 °F 93% 30.01 in 2.5 mi SE 13.8 mph 23.0 mph 0.14 in Rain Rain
12:42 AM 39.2 °F 30.8 °F 37.4 °F 93% 30.01 in 4.0 mi ESE 15.0 mph - 0.17 in Rain Rain
12:53 AM 39.0 °F 30.3 °F 37.0 °F 93% 29.99 in 3.0 mi ESE 16.1 mph 19.6 mph 0.22 in Rain Rain
1:12 AM 39.2 °F 31.2 °F 37.4 °F 93% 29.97 in 5.0 mi SE 13.8 mph - 0.02 in Rain Light Rain
1:53 AM 41.0 °F 32.8 °F 39.0 °F 93% 29.96 in 5.0 mi SE 16.1 mph - 0.05 in Rain Light Rain
2:53 AM 42.1 °F 34.5 °F 39.9 °F 92% 29.93 in 6.0 mi SE 15.0 mph - 0.06 in Rain Light Rain
3:53 AM 43.0 °F 36.0 °F 41.0 °F 93% 29.88 in 2.5 mi SE 13.8 mph - 0.01 in Rain Rain
4:01 AM 42.8 °F 35.8 °F 41.0 °F 93% 29.86 in 3.0 mi SE 13.8 mph - 0.01 in Rain Light Rain
4:34 AM 42.8 °F 36.2 °F 41.0 °F 93% 29.83 in 2.5 mi SE 12.7 mph - 0.09 in Rain Rain
4:42 AM 42.8 °F 36.2 °F 41.0 °F 93% 29.82 in 4.0 mi SE 12.7 mph - 0.10 in Rain Light Rain
4:53 AM 44.1 °F 37.1 °F 42.1 °F 93% 29.83 in 6.0 mi SE 15.0 mph - 0.10 in Rain Light Rain
5:24 AM 44.6 °F 38.1 °F 42.8 °F 93% 29.79 in 5.0 mi SE 13.8 mph - 0.02 in Rain Light Rain
5:45 AM 44.6 °F 38.8 °F 42.8 °F 93% 29.78 in 4.0 mi SE 11.5 mph - 0.05 in Rain Light Rain
5:53 AM 45.0 °F 38.9 °F 43.0 °F 93% 29.78 in 5.0 mi SE 12.7 mph - 0.06 in Rain Light Rain
6:53 AM 46.9 °F - 46.0 °F 97% 29.74 in 6.0 mi SE 12.7 mph - 0.02 in   Overcast
7:53 AM 48.0 °F - 46.0 °F 93% 29.73 in 6.0 mi SSE 11.5 mph - N/A   Overcast
8:44 AM 48.2 °F - 48.2 °F 100% 29.73 in 6.0 mi SSE 10.4 mph - N/A   Overcast
8:53 AM 50.0 °F - 48.0 °F 93% 29.74 in 6.0 mi SSE 15.0 mph - N/A   Overcast
9:42 AM 51.8 °F - 48.2 °F 88% 29.73 in 7.0 mi South 11.5 mph - 0.00 in Rain Light Rain
9:53 AM 51.1 °F - 48.9 °F 92% 29.74 in 8.0 mi South 11.5 mph - 0.00 in   Overcast
10:53 AM 54.0 °F - 51.1 °F 90% 29.74 in 3.0 mi SSW 13.8 mph 19.6 mph 0.02 in Rain Light Rain
11:53 AM 53.1 °F - 50.0 °F 89% 29.74 in 4.0 mi SW 20.7 mph 29.9 mph 0.01 in   Overcast
12:01 PM 51.8 °F - 48.2 °F 88% 29.73 in 2.0 mi SW 18.4 mph - N/A   Overcast
12:19 PM 51.8 °F - 48.2 °F 88% 29.73 in 5.0 mi SW 16.1 mph 21.9 mph N/A   Overcast
12:53 PM 50.0 °F - 48.0 °F 93% 29.74 in 3.0 mi SW 16.1 mph - N/A   Overcast
1:00 PM 50.0 °F - 48.2 °F 94% 29.73 in 2.0 mi SW 19.6 mph 27.6 mph N/A   Overcast
1:14 PM 50.0 °F - 46.4 °F 87% 29.74 in 3.0 mi SW 19.6 mph 27.6 mph N/A   Overcast
1:45 PM 51.8 °F - 46.4 °F 82% 29.74 in 10.0 mi SW 19.6 mph 28.8 mph N/A   Overcast
1:53 PM 51.1 °F - 46.9 °F 86% 29.75 in 10.0 mi SW 19.6 mph 25.3 mph N/A   Overcast
2:15 PM 50.0 °F - 46.4 °F 87% 29.74 in 1.8 mi SW 20.7 mph 29.9 mph N/A   Overcast
2:19 PM 50.0 °F - 46.4 °F 87% 29.75 in 2.0 mi SW 18.4 mph 25.3 mph N/A   Overcast
2:50 PM 50.0 °F - 46.4 °F 87% 29.77 in 6.0 mi SW 24.2 mph 33.4 mph N/A   Overcast
3:53 PM 50.0 °F - 46.0 °F 86% 29.80 in 4.0 mi SW 18.4 mph 24.2 mph N/A   Overcast
4:31 PM 48.2 °F - 44.6 °F 87% 29.80 in 10.0 mi SW 18.4 mph 26.5 mph N/A   Overcast
4:53 PM 50.0 °F - 45.0 °F 83% 29.81 in 10.0 mi SW 13.8 mph 23.0 mph N/A   Overcast
5:03 PM 50.0 °F - 44.6 °F 82% 29.79 in 10.0 mi SSW 13.8 mph 23.0 mph N/A   Overcast
5:53 PM 48.9 °F - 45.0 °F 86% 29.79 in 10.0 mi South 15.0 mph - N/A   Overcast
6:01 PM 48.2 °F - 44.6 °F 87% 29.78 in 10.0 mi South 11.5 mph - N/A   Overcast
6:53 PM 50.0 °F - 45.0 °F 83% 29.82 in 10.0 mi South 8.1 mph - N/A   Overcast
7:04 PM 50.0 °F - 44.6 °F 82% 29.81 in 10.0 mi South 9.2 mph - N/A   Overcast
7:53 PM 48.9 °F - 45.0 °F 86% 29.79 in 10.0 mi SSE 6.9 mph - N/A   Overcast
8:39 PM 48.2 °F - 44.6 °F 87% 29.78 in 10.0 mi SSE 5.8 mph - N/A   Partly Cloudy
8:53 PM 48.0 °F - 44.1 °F 86% 29.80 in 10.0 mi South 5.8 mph - N/A   Clear
9:53 PM 50.0 °F - 44.1 °F 80% 29.72 in 10.0 mi South 10.4 mph - N/A   Clear
10:53 PM 50.0 °F - 45.0 °F 83% 29.76 in 10.0 mi South 10.4 mph - N/A   Clear